Weather History for Pipestone, MN

Change the Weather History Date:

Tuesday, September 3, 2013

  Actual Average Record
Temperature  
Mean Temperature 66 °F -  
Max Temperature 80 °F 76 °F 89 °F (2012)
Min Temperature 51 °F 55 °F 41 °F (2008)
Growing Degree Days 16 (Base 50)    
Moisture  
Dew Point 58 °F    
Average Humidity 76    
Maximum Humidity 94    
Minimum Humidity 53    
Precipitation  
Precipitation 0.00 in - - ()
Sea Level Pressure  
Sea Level Pressure 30.05 in    
Wind  
Wind Speed 5 mph (South)    
Max Wind Speed 12 mph    
Max Gust Speed 16 mph    
Visibility 10 miles    
Events      
Averages and records for this station are not official NWS values.
T = Trace of Precipitation, MM = Missing Value Source: NWS Daily Summary

Daily Weather History Graph

Daily Weather History Graph

Search for Another Location

Airport:

Trip Planner

Search our weather history database for the weather conditions in past years. The results will help you decide how hot, cold, wet, or windy it might be!

Date:

Astronomy

Sep. 03, 2013 Rise Set
Actual Time 6:51 AM CDT 7:56 PM CDT
Civil Twilight 6:21 AM CDT 8:26 PM CDT
Nautical Twilight 5:46 AM CDT 9:01 PM CDT
Astronomical Twilight 5:08 AM CDT 9:38 PM CDT
Moon 5:04 AM CDT (9/3) 6:45 PM CDT (9/3)
Length of Visible Light 14h 05m
Length of Day
13h 05m
Waning Crescent, 3% of the Moon is Illuminated
Sep 3
Waning Crescent
Sep 5
New
Sep 12
First Quarter
Sep 19
Full
Sep 26
Last Quarter

Hourly Weather History & Observations

Time (CDT) Temp. Heat Index Dew Point Humidity Pressure Visibility Wind Dir Wind Speed Gust Speed Precip Events Conditions
12:12 AM 55.4 °F - 50.0 °F 82% 30.06 in 10.0 mi ESE 4.6 mph - N/A   Clear
12:33 AM 55.4 °F - 50.0 °F 82% 30.07 in 10.0 mi ESE 4.6 mph - N/A   Clear
12:53 AM 55.4 °F - 50.0 °F 82% 30.06 in 10.0 mi ESE 4.6 mph - N/A   Clear
1:14 AM 55.4 °F - 50.0 °F 82% 30.06 in 10.0 mi SE 4.6 mph - N/A   Clear
1:33 AM 53.6 °F - 50.0 °F 88% 30.06 in 10.0 mi SE 4.6 mph - N/A   Clear
1:53 AM 53.6 °F - 50.0 °F 88% 30.06 in 10.0 mi SE 4.6 mph - N/A   Clear
2:13 AM 55.4 °F - 50.0 °F 82% 30.06 in 10.0 mi SE 4.6 mph - N/A   Clear
2:33 AM 53.6 °F - 48.2 °F 82% 30.06 in 10.0 mi SE 4.6 mph - N/A   Clear
2:53 AM 53.6 °F - 48.2 °F 82% 30.06 in 10.0 mi SE 5.8 mph - N/A   Clear
3:13 AM 53.6 °F - 48.2 °F 82% 30.07 in 10.0 mi South 4.6 mph - N/A   Clear
3:33 AM 53.6 °F - 50.0 °F 88% 30.07 in 10.0 mi South 4.6 mph - N/A   Clear
3:53 AM 53.6 °F - 50.0 °F 88% 30.07 in 10.0 mi South 3.5 mph - N/A   Clear
4:13 AM 53.6 °F - 50.0 °F 88% 30.07 in 10.0 mi South 4.6 mph - N/A   Clear
4:33 AM 53.6 °F - 50.0 °F 88% 30.07 in 10.0 mi South 3.5 mph - N/A   Clear
4:53 AM 51.8 °F - 48.2 °F 88% 30.08 in 10.0 mi South 3.5 mph - N/A   Clear
5:13 AM 51.8 °F - 50.0 °F 94% 30.08 in 10.0 mi South 4.6 mph - N/A   Clear
5:33 AM 51.8 °F - 48.2 °F 88% 30.07 in 10.0 mi South 4.6 mph - N/A   Clear
5:54 AM 53.6 °F - 50.0 °F 88% 30.08 in 10.0 mi South 3.5 mph - N/A   Clear
6:13 AM 53.6 °F - 50.0 °F 88% 30.08 in 10.0 mi South 4.6 mph - N/A   Clear
6:29 AM 51.8 °F - 50.0 °F 94% 30.08 in 10.0 mi Calm Calm - N/A   Clear
6:51 AM 51.8 °F - 50.0 °F 94% 30.09 in 10.0 mi South 3.5 mph - N/A   Clear
7:12 AM 51.8 °F - 50.0 °F 94% 30.09 in 10.0 mi South 4.6 mph - N/A   Clear
7:33 AM 53.6 °F - 50.0 °F 88% 30.09 in 10.0 mi Calm Calm - N/A   Clear
7:42 AM 53.6 °F - 50.0 °F 88% 30.09 in 10.0 mi Calm Calm - N/A   Clear
8:13 AM 55.4 °F - 51.8 °F 88% 30.08 in 10.0 mi SE 3.5 mph - N/A   Clear
8:33 AM 57.2 °F - 53.6 °F 88% 30.08 in 10.0 mi SSE 4.6 mph - N/A   Unknown
8:53 AM 59.0 °F - 55.4 °F 88% 30.09 in 10.0 mi South 3.5 mph - N/A   Clear
9:13 AM 60.8 °F - 55.4 °F 82% 30.08 in 10.0 mi South 4.6 mph - N/A   Clear
9:33 AM 62.6 °F - 55.4 °F 77% 30.09 in 10.0 mi South 5.8 mph - N/A   Clear
9:53 AM 64.4 °F - 57.2 °F 77% 30.09 in 10.0 mi South 5.8 mph - N/A   Clear
10:13 AM 68.0 °F - 57.2 °F 68% 30.09 in 10.0 mi SSW 8.1 mph - N/A   Clear
10:33 AM 69.8 °F - 57.2 °F 64% 30.08 in 10.0 mi SSW 8.1 mph - N/A   Clear
10:53 AM 71.6 °F - 57.2 °F 60% 30.08 in 10.0 mi South 9.2 mph - N/A   Clear
11:13 AM 71.6 °F - 57.2 °F 60% 30.07 in 10.0 mi SSW 8.1 mph - N/A   Clear
11:33 AM 73.4 °F - 57.2 °F 57% 30.07 in 10.0 mi SSW 8.1 mph - N/A   Clear
11:53 AM 73.4 °F - 59.0 °F 61% 30.07 in 10.0 mi SSW 9.2 mph - N/A   Clear
12:13 PM 75.2 °F - 57.2 °F 53% 30.06 in 10.0 mi SSW 10.4 mph - N/A   Clear
12:33 PM 73.4 °F - 57.2 °F 57% 30.06 in 10.0 mi SSW 10.4 mph 16.1 mph N/A   Clear
12:53 PM 75.2 °F - 60.8 °F 61% 30.05 in 10.0 mi SSW 10.4 mph - N/A   Clear
1:13 PM 77.0 °F - 60.8 °F 57% 30.05 in 10.0 mi SSW 11.5 mph - N/A   Clear
1:33 PM 78.8 °F - 60.8 °F 54% 30.04 in 10.0 mi South 10.4 mph - N/A   Clear
1:53 PM 78.8 °F - 62.6 °F 57% 30.04 in 10.0 mi SSW 9.2 mph - N/A   Clear
2:13 PM 78.8 °F - 62.6 °F 57% 30.04 in 10.0 mi SSW 8.1 mph - N/A   Clear
2:33 PM 78.8 °F - 62.6 °F 57% 30.04 in 10.0 mi South 8.1 mph - N/A   Clear
2:53 PM 80.6 °F 82.3 °F 64.4 °F 58% 30.03 in 10.0 mi South 8.1 mph - N/A   Clear
3:13 PM 80.6 °F 81.8 °F 62.6 °F 54% 30.03 in 10.0 mi South 8.1 mph - N/A   Clear
3:33 PM 80.6 °F 81.8 °F 62.6 °F 54% 30.03 in 10.0 mi South 9.2 mph - N/A   Clear
3:53 PM 78.8 °F - 62.6 °F 57% 30.03 in 10.0 mi SSW 5.8 mph - N/A   Clear
4:13 PM 78.8 °F - 62.6 °F 57% 30.03 in 10.0 mi SSW 9.2 mph - N/A   Clear
4:33 PM 78.8 °F - 64.4 °F 61% 30.03 in 10.0 mi South 9.2 mph - N/A   Clear
4:53 PM 78.8 °F - 64.4 °F 61% 30.03 in 10.0 mi South 8.1 mph - N/A   Clear
5:13 PM 78.8 °F - 64.4 °F 61% 30.02 in 10.0 mi South 6.9 mph - N/A   Clear
5:33 PM 78.8 °F - 64.4 °F 61% 30.02 in 10.0 mi SSW 10.4 mph - N/A   Clear
5:53 PM 78.8 °F - 64.4 °F 61% 30.02 in 10.0 mi SSW 9.2 mph - N/A   Clear
6:13 PM 78.8 °F - 64.4 °F 61% 30.02 in 10.0 mi South 6.9 mph - N/A   Clear
6:33 PM 77.0 °F - 66.2 °F 69% 30.02 in 10.0 mi SSW 5.8 mph - N/A   Scattered Clouds
6:53 PM 75.2 °F - 66.2 °F 73% 30.02 in 10.0 mi South 4.6 mph - N/A   Clear
7:13 PM 75.2 °F - 66.2 °F 73% 30.03 in 10.0 mi South 3.5 mph - N/A   Scattered Clouds
7:33 PM 75.2 °F - 66.2 °F 73% 30.02 in 10.0 mi South 5.8 mph - N/A   Clear
7:53 PM 73.4 °F - 66.2 °F 78% 30.02 in 10.0 mi South 4.6 mph - N/A   Clear
8:13 PM 73.4 °F - 66.2 °F 78% 30.02 in 10.0 mi SSE 3.5 mph - N/A   Clear
8:33 PM 71.6 °F - 66.2 °F 83% 30.03 in 10.0 mi South 4.6 mph - N/A   Clear
8:53 PM 71.6 °F - 66.2 °F 83% 30.03 in 10.0 mi South 5.8 mph - N/A   Clear
9:13 PM 71.6 °F - 66.2 °F 83% 30.03 in 10.0 mi South 5.8 mph - N/A   Clear
9:33 PM 71.6 °F - 66.2 °F 83% 30.03 in 10.0 mi South 5.8 mph - N/A   Clear
9:53 PM 69.8 °F - 64.4 °F 83% 30.04 in 10.0 mi South 3.5 mph - N/A   Clear
10:13 PM 68.0 °F - 64.4 °F 88% 30.04 in 10.0 mi SSW 3.5 mph - N/A   Clear
10:33 PM 68.0 °F - 64.4 °F 88% 30.04 in 10.0 mi Calm Calm - N/A   Clear
10:53 PM 68.0 °F - 64.4 °F 88% 30.04 in 10.0 mi Calm Calm - N/A   Clear
11:13 PM 66.2 °F - 64.4 °F 94% 30.04 in 10.0 mi SSW 3.5 mph - N/A   Clear
11:33 PM 66.2 °F - 64.4 °F 94% 30.04 in 10.0 mi Calm Calm - N/A   Clear
11:53 PM 66.2 °F - 62.6 °F 88% 30.05 in 10.0 mi Calm Calm - N/A   Clear